| time (UTC) | temp F | wind direction | speed MPH | gust MPH | rain 1hr in | rain 24hr in | rain mn in | humidity % | barometer mb |
| 20260906005025 | 83 | 168 | 1.0 | 4.0 | 0.00 | 0.00 | 0.00 | 40 | 1011.6 |
| 20260906004125 | 84 | 162 | 1.0 | 4.0 | 0.00 | 0.00 | 0.00 | 39 | 1011.6 |
| 20260906003225 | 84 | 222 | 1.0 | 4.0 | 0.00 | 0.00 | 0.00 | 38 | 1011.7 |
| 20260906001425 | 85 | 222 | 2.0 | 7.0 | 0.00 | 0.00 | 0.00 | 37 | 1011.6 |
| 20260905235625 | 85 | 181 | 2.0 | 8.0 | 0.00 | 0.00 | 0.00 | 37 | 1011.7 |
| 20260905234725 | 86 | 168 | 1.0 | 5.0 | 0.00 | 0.00 | 0.00 | 36 | 1011.8 |
| 20260905233825 | 85 | 206 | 2.0 | 7.0 | 0.00 | 0.00 | 0.00 | 38 | 1011.9 |
| 20260905232925 | 85 | 192 | 1.0 | 7.0 | 0.00 | 0.00 | 0.00 | 37 | 1011.8 |
| 20260905232025 | 84 | 108 | 2.0 | 3.0 | 0.00 | 0.00 | 0.00 | 38 | 1011.9 |
| 20260905231125 | 84 | 105 | 2.0 | 3.0 | 0.00 | 0.00 | 0.00 | 37 | 1012.0 |
| 20260905230225 | 84 | 216 | 2.0 | 5.0 | 0.00 | 0.00 | 0.00 | 37 | 1012.1 |
| 20260905225325 | 84 | 123 | 2.0 | 5.0 | 0.00 | 0.00 | 0.00 | 37 | 1012.2 |
| 20260905224425 | 84 | 117 | 1.0 | 5.0 | 0.00 | 0.00 | 0.00 | 37 | 1012.2 |
| 20260905223525 | 84 | 134 | 1.0 | 4.0 | 0.00 | 0.00 | 0.00 | 37 | 1012.3 |
| 20260905222625 | 83 | 117 | 2.0 | 4.0 | 0.00 | 0.00 | 0.00 | 36 | 1012.4 |
| 20260905221725 | 83 | 307 | 2.0 | 3.0 | 0.00 | 0.00 | 0.00 | 36 | 1012.4 |
| 20260905213225 | 84 | 226 | 2.0 | 6.0 | 0.00 | 0.00 | 0.00 | 40 | 1012.9 |
| 20260905212325 | 82 | 142 | 2.0 | 7.0 | 0.00 | 0.00 | 0.00 | 42 | 1012.9 |
| 20260905211425 | 83 | 202 | 1.0 | 5.0 | 0.00 | 0.00 | 0.00 | 41 | 1013.0 |
| 20260905210525 | 83 | 258 | 2.0 | 3.0 | 0.00 | 0.00 | 0.00 | 41 | 1013.0 |
| 20260905205625 | 82 | 236 | 2.0 | 5.0 | 0.00 | 0.00 | 0.00 | 40 | 1013.1 |
| 20260905204725 | 82 | 233 | 2.0 | 7.0 | 0.00 | 0.00 | 0.00 | 41 | 1013.1 |
| 20260905203826 | 82 | 208 | 2.0 | 4.0 | 0.00 | 0.00 | 0.00 | 41 | 1013.1 |
| 20260905202925 | 82 | 218 | 1.0 | 6.0 | 0.00 | 0.00 | 0.00 | 42 | 1013.2 |
| 20260905202025 | 81 | 76 | 1.0 | 4.0 | 0.00 | 0.00 | 0.00 | 44 | 1013.2 |
| 20260905201125 | 82 | 202 | 2.0 | 3.0 | 0.00 | 0.00 | 0.00 | 44 | 1013.2 |
| 20260905200225 | 81 | 208 | 1.0 | 5.0 | 0.00 | 0.00 | 0.00 | 45 | 1013.4 |
| 20260905195325 | 81 | 207 | 1.0 | 5.0 | 0.00 | 0.00 | 0.00 | 46 | 1013.4 |
| 20260905193525 | 79 | 261 | 1.0 | 4.0 | 0.00 | 0.00 | 0.00 | 50 | 1013.6 |
| 20260905192625 | 79 | 192 | 1.0 | 4.0 | 0.00 | 0.00 | 0.00 | 48 | 1013.7 |
| 20260905191725 | 79 | 206 | 1.0 | 3.0 | 0.00 | 0.00 | 0.00 | 49 | 1013.8 |
| 20260905190825 | 78 | 212 | 1.0 | 4.0 | 0.00 | 0.00 | 0.00 | 50 | 1014.0 |
| 20260905185925 | 78 | 216 | 1.0 | 3.0 | 0.00 | 0.00 | 0.00 | 52 | 1014.0 |
| 20260905185025 | 78 | 228 | 2.0 | 5.0 | 0.00 | 0.00 | 0.00 | 52 | 1014.0 |
| 20260905184125 | 77 | 221 | 2.0 | 4.0 | 0.00 | 0.00 | 0.00 | 53 | 1014.0 |
| 20260905183225 | 76 | 196 | 2.0 | 4.0 | 0.00 | 0.00 | 0.00 | 54 | 1014.2 |
| 20260905182325 | 76 | 199 | 2.0 | 5.0 | 0.00 | 0.00 | 0.00 | 54 | 1014.1 |
| 20260905181425 | 76 | 228 | 1.0 | 5.0 | 0.00 | 0.00 | 0.00 | 53 | 1014.0 |
| 20260905180526 | 75 | 105 | 1.0 | 5.0 | 0.00 | 0.00 | 0.00 | 56 | 1014.0 |
| 20260905174725 | 75 | 202 | 1.0 | 4.0 | 0.00 | 0.00 | 0.00 | 56 | 1013.9 |
| 20260905173825 | 73 | 43 | 1.0 | 4.0 | 0.00 | 0.00 | 0.00 | 58 | 1013.9 |
| 20260905172025 | 72 | 223 | 1.0 | 3.0 | 0.00 | 0.00 | 0.00 | 60 | 1013.9 |
| 20260905171125 | 72 | 222 | 1.0 | 3.0 | 0.00 | 0.00 | 0.00 | 60 | 1013.7 |
| 20260905170225 | 71 | 210 | 1.0 | 2.0 | 0.00 | 0.00 | 0.00 | 62 | 1013.9 |
| 20260905165325 | 70 | 44 | 0.0 | 3.0 | 0.00 | 0.00 | 0.00 | 64 | 1014.0 |
| 20260905164425 | 70 | 158 | 1.0 | 3.0 | 0.00 | 0.00 | 0.00 | 66 | 1013.9 |
| 20260905163525 | 70 | 173 | 0.0 | 3.0 | 0.00 | 0.00 | 0.00 | 65 | 1013.8 |
| 20260905162625 | 71 | 0 | 0.0 | 2.0 | 0.00 | 0.00 | 0.00 | 66 | 1013.8 |
| 20260905161725 | 69 | 159 | 1.0 | 2.0 | 0.00 | 0.00 | 0.00 | 68 | 1013.9 |
| 20260905160825 | 67 | 204 | 1.0 | 2.0 | 0.00 | 0.00 | 0.00 | 70 | 1013.9 |
| 20260905155925 | 67 | 187 | 0.0 | 2.0 | 0.00 | 0.00 | 0.00 | 71 | 1014.0 |
| 20260905155025 | 66 | 123 | 1.0 | 2.0 | 0.00 | 0.00 | 0.00 | 72 | 1013.8 |
| 20260905154125 | 65 | 168 | 0.0 | 2.0 | 0.00 | 0.00 | 0.00 | 74 | 1014.0 |
| 20260905153225 | 64 | 0 | 0.0 | 2.0 | 0.00 | 0.00 | 0.00 | 76 | 1013.9 |
| 20260905152325 | 63 | 0 | 0.0 | 2.0 | 0.00 | 0.00 | 0.00 | 76 | 1013.8 |
| 20260905151425 | 61 | 0 | 0.0 | 2.0 | 0.00 | 0.00 | 0.00 | 79 | 1013.7 |
| 20260905150525 | 60 | 0 | 0.0 | 2.0 | 0.00 | 0.00 | 0.00 | 80 | 1013.6 |
| 20260905145625 | 59 | 0 | 0.0 | 2.0 | 0.00 | 0.00 | 0.00 | 83 | 1013.6 |
| 20260905143825 | 58 | 0 | 0.0 | 1.0 | 0.00 | 0.00 | 0.00 | 83 | 1013.7 |
| 20260905142925 | 58 | 0 | 0.0 | 1.0 | 0.00 | 0.00 | 0.00 | 81 | 1013.7 |
| 20260905142025 | 57 | 0 | 0.0 | 0.0 | 0.00 | 0.00 | 0.00 | 87 | 1013.6 |
| 20260905141125 | 55 | 0 | 0.0 | 1.0 | 0.00 | 0.00 | 0.00 | 88 | 1013.5 |
| 20260905135325 | 54 | 0 | 0.0 | 1.0 | 0.00 | 0.00 | 0.00 | 88 | 1013.2 |
| 20260905134425 | 54 | 0 | 0.0 | 1.0 | 0.00 | 0.00 | 0.00 | 87 | 1013.3 |
| 20260905133525 | 54 | 0 | 0.0 | 1.0 | 0.00 | 0.00 | 0.00 | 87 | 1013.3 |
| 20260905131725 | 54 | 0 | 0.0 | 0.0 | 0.00 | 0.00 | 0.00 | 87 | 1013.2 |
| 20260905130825 | 55 | 0 | 0.0 | 1.0 | 0.00 | 0.00 | 0.00 | 86 | 1013.3 |
| 20260905124125 | 55 | 0 | 0.0 | 1.0 | 0.00 | 0.00 | 0.00 | 85 | 1013.3 |
| 20260905123225 | 55 | 0 | 0.0 | 1.0 | 0.00 | 0.00 | 0.00 | 84 | 1013.2 |
| 20260905122325 | 56 | 0 | 0.0 | 1.0 | 0.00 | 0.00 | 0.00 | 84 | 1013.3 |
| 20260905121425 | 56 | 0 | 0.0 | 2.0 | 0.00 | 0.00 | 0.00 | 83 | 1013.2 |
| 20260905120525 | 56 | 0 | 0.0 | 3.0 | 0.00 | 0.00 | 0.00 | 83 | 1013.1 |
| 20260905115625 | 56 | 0 | 0.0 | 1.0 | 0.00 | 0.00 | 0.00 | 83 | 1013.3 |
| 20260905114725 | 56 | 0 | 0.0 | 2.0 | 0.00 | 0.00 | 0.00 | 83 | 1013.2 |
| 20260905113825 | 56 | 0 | 0.0 | 2.0 | 0.00 | 0.00 | 0.00 | 82 | 1013.3 |
| 20260905112025 | 56 | 0 | 0.0 | 2.0 | 0.00 | 0.00 | 0.00 | 82 | 1013.2 |
| 20260905111125 | 56 | 0 | 0.0 | 2.0 | 0.00 | 0.00 | 0.00 | 81 | 1013.5 |
| 20260905110225 | 56 | 0 | 0.0 | 1.0 | 0.00 | 0.00 | 0.00 | 82 | 1013.5 |
| 20260905105325 | 56 | 0 | 0.0 | 3.0 | 0.00 | 0.00 | 0.00 | 82 | 1013.5 |
| 20260905104425 | 56 | 0 | 0.0 | 1.0 | 0.00 | 0.00 | 0.00 | 82 | 1013.4 |
| 20260905103525 | 57 | 0 | 0.0 | 1.0 | 0.00 | 0.00 | 0.00 | 81 | 1013.4 |
| 20260905102625 | 57 | 0 | 0.0 | 2.0 | 0.00 | 0.00 | 0.00 | 81 | 1013.4 |
| 20260905101725 | 57 | 0 | 0.0 | 2.0 | 0.00 | 0.00 | 0.00 | 81 | 1013.6 |
| 20260905095025 | 58 | 0 | 0.0 | 0.0 | 0.00 | 0.00 | 0.00 | 79 | 1013.6 |
| 20260905094125 | 58 | 0 | 0.0 | 2.0 | 0.00 | 0.00 | 0.00 | 79 | 1013.7 |
| 20260905093225 | 58 | 0 | 0.0 | 1.0 | 0.00 | 0.00 | 0.00 | 79 | 1013.6 |
| 20260905092325 | 58 | 0 | 0.0 | 0.0 | 0.00 | 0.00 | 0.00 | 79 | 1013.6 |
| 20260905090525 | 59 | 0 | 0.0 | 0.0 | 0.00 | 0.00 | 0.00 | 79 | 1013.5 |
| 20260905084725 | 59 | 0 | 0.0 | 1.0 | 0.00 | 0.00 | 0.00 | 77 | 1013.6 |
| 20260905083825 | 59 | 0 | 0.0 | 1.0 | 0.00 | 0.00 | 0.00 | 77 | 1013.6 |
| 20260905082925 | 60 | 0 | 0.0 | 1.0 | 0.00 | 0.00 | 0.00 | 76 | 1013.5 |
| 20260905082025 | 60 | 0 | 0.0 | 1.0 | 0.00 | 0.00 | 0.00 | 76 | 1013.6 |
| 20260905081125 | 60 | 129 | 0.0 | 2.0 | 0.00 | 0.00 | 0.00 | 75 | 1013.5 |
| 20260905080225 | 60 | 0 | 0.0 | 2.0 | 0.00 | 0.00 | 0.00 | 74 | 1013.5 |
| 20260905075325 | 61 | 103 | 0.0 | 2.0 | 0.00 | 0.00 | 0.00 | 73 | 1013.3 |
| 20260905074426 | 61 | 99 | 1.0 | 5.0 | 0.00 | 0.00 | 0.00 | 72 | 1013.3 |
| 20260905073525 | 61 | 106 | 0.0 | 3.0 | 0.00 | 0.00 | 0.00 | 72 | 1013.3 |
| 20260905072625 | 62 | 107 | 1.0 | 2.0 | 0.00 | 0.01 | 0.00 | 72 | 1013.2 |
| 20260905071725 | 62 | 110 | 0.0 | 2.0 | 0.00 | 0.01 | 0.00 | 71 | 1013.2 |
| 20260905070825 | 62 | 0 | 0.0 | 1.0 | 0.00 | 0.01 | 0.00 | 70 | 1013.1 |
| 20260905065025 | 63 | 0 | 0.0 | 3.0 | 0.00 | 0.01 | 0.01 | 70 | 1013.0 |
| 20260905064125 | 63 | 0 | 0.0 | 2.0 | 0.00 | 0.01 | 0.01 | 70 | 1012.9 |
| 20260905063225 | 63 | 0 | 0.0 | 1.0 | 0.00 | 0.01 | 0.01 | 69 | 1012.8 |
| 20260905062325 | 63 | 0 | 0.0 | 1.0 | 0.00 | 0.01 | 0.01 | 69 | 1012.7 |
| 20260905061425 | 63 | 0 | 0.0 | 2.0 | 0.00 | 0.01 | 0.01 | 69 | 1012.7 |
| 20260905060525 | 64 | 0 | 0.0 | 1.0 | 0.00 | 0.01 | 0.01 | 69 | 1012.8 |
| 20260905055625 | 64 | 0 | 0.0 | 1.0 | 0.00 | 0.01 | 0.01 | 68 | 1012.7 |
| 20260905054725 | 64 | 0 | 0.0 | 0.0 | 0.00 | 0.01 | 0.01 | 67 | 1012.8 |
| 20260905053825 | 64 | 0 | 0.0 | 0.0 | 0.00 | 0.01 | 0.01 | 67 | 1012.8 |
| 20260905052925 | 65 | 0 | 0.0 | 0.0 | 0.00 | 0.01 | 0.01 | 68 | 1012.8 |
| 20260905052025 | 65 | 0 | 0.0 | 0.0 | 0.00 | 0.01 | 0.01 | 68 | 1012.9 |
| 20260905051125 | 66 | 0 | 0.0 | 0.0 | 0.00 | 0.01 | 0.01 | 65 | 1012.9 |
| 20260905050225 | 66 | 0 | 0.0 | 1.0 | 0.00 | 0.01 | 0.01 | 64 | 1013.0 |
| 20260905045325 | 67 | 0 | 0.0 | 1.0 | 0.00 | 0.01 | 0.01 | 63 | 1013.0 |
| 20260905044425 | 67 | 0 | 0.0 | 2.0 | 0.00 | 0.01 | 0.01 | 63 | 1012.9 |
| 20260905043525 | 68 | 0 | 0.0 | 2.0 | 0.00 | 0.01 | 0.01 | 62 | 1012.9 |
| 20260905042625 | 68 | 0 | 0.0 | 2.0 | 0.00 | 0.01 | 0.01 | 63 | 1012.8 |
| 20260905041725 | 68 | 199 | 0.0 | 1.0 | 0.00 | 0.01 | 0.01 | 61 | 1012.7 |
| 20260905040825 | 69 | 201 | 1.0 | 3.0 | 0.00 | 0.01 | 0.01 | 61 | 1012.6 |
| 20260905035925 | 69 | 216 | 1.0 | 5.0 | 0.00 | 0.01 | 0.01 | 60 | 1012.5 |
| 20260905034125 | 70 | 225 | 2.0 | 5.0 | 0.00 | 0.01 | 0.01 | 59 | 1012.4 |
| 20260905033225 | 70 | 214 | 2.0 | 7.0 | 0.00 | 0.01 | 0.01 | 58 | 1012.3 |
| 20260905032325 | 70 | 210 | 0.0 | 7.0 | 0.00 | 0.01 | 0.01 | 54 | 1012.2 |
| 20260905031425 | 70 | 0 | 0.0 | 0.0 | 0.00 | 0.01 | 0.01 | 48 | 1012.0 |
| 20260905030525 | 71 | 0 | 0.0 | 0.0 | 0.00 | 0.01 | 0.01 | 45 | 1012.1 |
| 20260905024725 | 72 | 0 | 0.0 | 1.0 | 0.00 | 0.01 | 0.01 | 42 | 1011.9 |
| 20260905023825 | 73 | 0 | 0.0 | 2.0 | 0.00 | 0.01 | 0.01 | 40 | 1011.8 |
| 20260905022925 | 74 | 0 | 0.0 | 1.0 | 0.00 | 0.01 | 0.01 | 41 | 1011.8 |
| 20260905022025 | 74 | 0 | 0.0 | 3.0 | 0.00 | 0.01 | 0.01 | 40 | 1011.8 |
| 20260905021125 | 75 | 179 | 0.0 | 2.0 | 0.00 | 0.01 | 0.01 | 42 | 1011.8 |
| 20260905020225 | 75 | 154 | 1.0 | 3.0 | 0.00 | 0.01 | 0.01 | 42 | 1011.8 |
| 20260905013525 | 77 | 219 | 1.0 | 4.0 | 0.00 | 0.01 | 0.01 | 44 | 1011.8 |
| 20260905012625 | 77 | 219 | 1.0 | 4.0 | 0.00 | 0.01 | 0.01 | 45 | 1011.7 |
| 20260905011725 | 77 | 220 | 1.0 | 3.0 | 0.00 | 0.01 | 0.01 | 45 | 1011.6 |
| 20260905010825 | 77 | 203 | 1.0 | 5.0 | 0.00 | 0.01 | 0.01 | 45 | 1011.7 |
| 20260905005925 | 77 | 111 | 1.0 | 5.0 | 0.00 | 0.01 | 0.01 | 46 | 1011.6 |